Location: Cardiff
(53.7833°N, 113.6000°W)
Time: 01:46:37
(UTC+00:00)

AO-85 - Pass Details

Date: 06 December 2023
Orbit: 516 x 753 km, 64.8° (Epoch: 04 January)

Event Time Altitude Azimuth Distance (km) Brightness Sun altitude
Rises 01:00:14 0° 305° (NW) 2,764 ? -14.4°
Reaches altitude 10° 01:02:51 10° 322° (NW) 1,904 ? -14.8°
Maximum altitude 01:06:10 21° 13° (NNE) 1,362 ? -15.2°
Enters shadow 01:07:17 19° 34° (NE) 1,451 ? -15.4°
